Change the Weather History Date:

Saturday, May 18, 2013

  Actual Average Record
Temperature  
Mean Temperature 62 °F -  
Max Temperature 73 °F 68 °F 87 °F (1962)
Min Temperature 50 °F 48 °F 32 °F (2002)
Degree Days  
Heating Degree Days 4    
Growing Degree Days 12 (Base 50)    
Moisture  
Dew Point 52 °F    
Average Humidity 79    
Maximum Humidity 94    
Minimum Humidity 57    
Precipitation  
Precipitation 0.00 in - - ()
Sea Level Pressure  
Sea Level Pressure 30.04 in    
Wind  
Wind Speed 8 mph (ESE)    
Max Wind Speed 13 mph    
Max Gust Speed -    
Visibility 10 miles    
Events      
Averages and records for this station are not official NWS values.
T = Trace of Precipitation, MM = Missing Value Source: NWS Daily Summary

Daily Weather History Graph

Daily Weather History Graph

Search for Another Location

Airport or City:

Trip Planner

Search our weather history database for the weather conditions in past years. The results will help you decide how hot, cold, wet, or windy it might be!

Date:

Astronomy

May. 18, 2013 Rise Set
Actual Time 5:23 AM CDT 8:17 PM CDT
Civil Twilight 4:49 AM CDT 8:51 PM CDT
Nautical Twilight 4:06 AM CDT 9:35 PM CDT
Astronomical Twilight 3:15 AM CDT 10:26 PM CDT
Moon 1:05 PM CDT (5/18) 1:32 AM CDT (5/18)
Length of Visible Light 16h 02m
Length of Day
14h 53m
First Quarter, 55% of the Moon is Illuminated
May 18
First Quarter
May 24
Full
May 31
Last Quarter
Jun 8
New
Jun 16
First Quarter

Hourly Weather History & Observations

Time (CDT) Temp. Dew Point Humidity Pressure Visibility Wind Dir Wind Speed Gust Speed Precip Events Conditions
12:35 AM 51.8 °F 50.0 °F 94% 30.09 in 10.0 mi ENE 9.2 mph - N/A   Overcast
12:55 AM 51.8 °F 50.0 °F 94% 30.09 in 10.0 mi NE 9.2 mph - N/A   Overcast
1:35 AM 51.8 °F 48.2 °F 88% 30.09 in 10.0 mi NE 8.1 mph - N/A   Overcast
1:55 AM 51.8 °F 48.2 °F 88% 30.09 in 10.0 mi East 8.1 mph - N/A   Overcast
2:15 AM 51.8 °F 48.2 °F 88% 30.09 in 10.0 mi East 6.9 mph - N/A   Overcast
2:35 AM 51.8 °F 48.2 °F 88% 30.09 in 10.0 mi ENE 8.1 mph - N/A   Overcast
2:55 AM 51.8 °F 48.2 °F 88% 30.10 in 10.0 mi ENE 5.8 mph - N/A   Overcast
3:15 AM 51.8 °F 48.2 °F 88% 30.09 in 10.0 mi ENE 5.8 mph - N/A   Overcast
3:35 AM 50.0 °F 48.2 °F 94% 30.09 in 10.0 mi ENE 6.9 mph - N/A   Overcast
3:55 AM 50.0 °F 48.2 °F 94% 30.08 in 10.0 mi East 6.9 mph - N/A   Overcast
4:15 AM 50.0 °F 48.2 °F 94% 30.08 in 10.0 mi East 6.9 mph - N/A   Overcast
4:35 AM 50.0 °F 48.2 °F 94% 30.08 in 10.0 mi ENE 8.1 mph - N/A   Overcast
5:15 AM 51.8 °F 46.4 °F 82% 30.07 in 10.0 mi East 6.9 mph - N/A   Overcast
5:45 AM 51.8 °F 48.2 °F 88% 30.08 in 10.0 mi East 6.9 mph - N/A   Mostly Cloudy
6:45 AM 53.6 °F 48.2 °F 82% 30.09 in 10.0 mi East 6.9 mph - N/A   Mostly Cloudy
7:45 AM 55.4 °F 46.4 °F 72% 30.09 in 10.0 mi ESE 9.2 mph - N/A   Scattered Clouds
8:45 AM 57.2 °F 48.2 °F 72% 30.09 in 10.0 mi SE 12.7 mph - N/A   Scattered Clouds
9:45 AM 60.8 °F 48.2 °F 63% 30.09 in 10.0 mi SE 9.2 mph - N/A   Scattered Clouds
10:45 AM 62.6 °F 50.0 °F 63% 30.08 in 10.0 mi SE 8.1 mph - N/A   Scattered Clouds
11:45 AM 64.4 °F 51.8 °F 64% 30.08 in 10.0 mi SSE 5.8 mph - N/A   Mostly Cloudy
12:45 PM 66.2 °F 53.6 °F 64% 30.06 in 10.0 mi ESE 9.2 mph - N/A   Mostly Cloudy
2:45 PM 71.6 °F 57.2 °F 60% 30.03 in 10.0 mi SE 8.1 mph - N/A   Mostly Cloudy
3:45 PM 73.4 °F 57.2 °F 57% 29.99 in 10.0 mi ESE 10.4 mph - N/A   Mostly Cloudy
4:45 PM 73.4 °F 59.0 °F 61% 29.99 in 10.0 mi SE 10.4 mph - N/A   Mostly Cloudy
5:45 PM 73.4 °F 60.8 °F 65% 29.97 in 10.0 mi SE 8.1 mph - N/A   Scattered Clouds
6:45 PM 71.6 °F 60.8 °F 69% 29.96 in 10.0 mi SE 6.9 mph - N/A   Scattered Clouds
7:45 PM 69.8 °F 60.8 °F 73% 29.96 in 7.0 mi SE 9.2 mph - N/A   Scattered Clouds
8:45 PM 66.2 °F 59.0 °F 78% 29.97 in 7.0 mi SSE 8.1 mph - N/A   Scattered Clouds
10:45 PM 64.4 °F 57.2 °F 77% 29.98 in 7.0 mi SE 5.8 mph - N/A   Scattered Clouds
10:55 PM 60.8 °F 55.4 °F 82% 29.96 in 10.0 mi SE 6.9 mph - N/A   Clear
11:15 PM 60.8 °F 55.4 °F 82% 29.96 in 10.0 mi SE 5.8 mph - N/A   Clear
11:35 PM 60.8 °F 55.4 °F 82% 29.96 in 10.0 mi SE 6.9 mph - N/A   Clear
11:55 PM 60.8 °F 55.4 °F 82% 29.95 in 10.0 mi SE 6.9 mph - N/A   Clear